STARLINK-35035

Last updated on Tue Sep 16 2025 00:02:07 GMT+0000 (Coordinated Universal Time)

1 65407U 25192D 25258.58341435 -.01474933 00000+0 -15544-1 0 9998 2 65407 53.1599 338.1350 0001067 80.5553 141.4791 15.66408807 3622
UTC large
Height (km)
Speed (km/s)
/
Latitude / Longitude
Inclination (degrees)
Orbital Period (minutes)
Azimuth
Elevation
Range (km)
Doppler Factor

Next 0 passes for location: London (51.5072 / 0.1276)

Sorry there are no passes over London.